Flag Weather past 2 weeks in Geesthacht, Schleswig-Holstein, Germany

Now
50 °F

Passing clouds.


Feels Like: 47 °F
Forecast: 49 / 56 °F
Wind: 8 mph from South

Location: Hamburg-Fuhlsbuettel

Current Time: Oct 30, 2014 at 6:04:30 PM

Latest Report: Oct 30, 2014 at 5:20 PM


Visibility: 5 mi

Pressure: 30.24 "Hg

Humidity: 94%

Dew point: 48 °F

Location of GeesthachtLocation

Historic Weather in Geesthacht — Graph

°F

Geesthacht temperature yesterday

Maximum temperature yesterday: 48 °F (at 7:20 PM)
Minimum temperature yesterday: 39 °F (at 3:20 AM)
Average temperature yesterday: 45 °F

Past Weeks' High & Low Weather Summary

 TemperatureHumidityPressure
High72 °F (Oct 19, 1:50 PM)100% (Oct 16, 5:20 AM)30.24 "Hg (Oct 16, 5:20 AM)
Low34 °F (Oct 30, 4:50 AM)63% (Oct 27, 12:20 PM)29.36 "Hg (Oct 21, 6:20 PM)
Average54 °F88%29.96 "Hg
* Reported Oct 15 5:20 PM — Oct 30 4:50 PM, Geesthacht, Weather by CustomWeather, © 2014

Note: Actual official high and low records may vary slightly from our data, if they occured in-between our weather recording intervals... More about our weather records

Advertising

Geesthacht weather history for previous 24 hours

 ConditionsComfort  
Time TempWeatherWind HumidityBarometerVisibility
4:50 PM
Oct 30
50 °FBroken clouds.10 mph94%30.24 "Hg6 mi
4:20 PM52 °FPartly sunny.9 mph88%30.24 "Hg6 mi
3:50 PM52 °FPartly sunny.9 mph88%30.24 "Hg6 mi
3:20 PM52 °FPartly sunny.12 mph88%30.24 "HgN/A
2:50 PM52 °FBroken clouds.10 mph88%30.24 "HgN/A
2:20 PM52 °FPartly sunny.8 mph82%30.24 "HgN/A
1:50 PM52 °FBroken clouds.6 mph82%30.24 "HgN/A
1:20 PM52 °FBroken clouds.6 mph82%30.24 "HgN/A
12:50 PM52 °FPartly sunny.7 mph82%30.24 "HgN/A
12:20 PM52 °FPartly sunny.7 mph82%30.24 "HgN/A
11:50 AM52 °FPartly sunny.8 mph88%30.24 "HgN/A
11:20 AM50 °FPartly sunny.6 mph88%30.24 "HgN/A
10:50 AM48 °FPartly sunny.3 mph94%30.24 "HgN/A
10:20 AM46 °FPartly sunny.1 mph100%30.24 "HgN/A
9:50 AM45 °FPartly sunny.2 mph100%30.24 "HgN/A
9:20 AM43 °FFog.1 mph100%30.24 "HgN/A
8:50 AM39 °FFog.3 mph100%30.24 "HgN/A
8:20 AM36 °FPartly sunny.1 mph100%30.24 "HgN/A
7:50 AM34 °FFog.1 mph100%30.24 "HgN/A
7:20 AM34 °FScattered clouds.1 mph100%30.24 "HgN/A
6:50 AM36 °FPassing clouds.1 mph100%30.21 "HgN/A
6:20 AM34 °FLight fog.2 mph100%30.21 "HgN/A
5:50 AM34 °FFog.2 mph100%30.21 "Hg1 mi
5:20 AM36 °FChilly.1 mph100%30.21 "Hg1 mi
4:50 AM34 °FFog.2 mph100%30.18 "Hg1 mi
4:20 AM37 °FFog.2 mph100%30.18 "Hg1 mi
3:50 AM37 °FFog.3 mph100%30.18 "Hg0 mi
3:20 AM37 °FFog.2 mph100%30.18 "Hg0 mi
2:50 AM39 °FFog.2 mph100%30.18 "Hg0 mi
2:20 AM39 °FFog.2 mph100%30.18 "Hg0 mi
1:50 AM41 °FFog.3 mph100%30.18 "Hg0 mi
1:20 AM43 °FFog.5 mph100%30.15 "Hg1 mi
12:50 AM43 °FQuite cool.5 mph100%30.15 "Hg1 mi
12:20 AM45 °FFog.2 mph100%30.15 "Hg2 mi
11:50 PM
Oct 29
46 °FFog.3 mph100%30.15 "Hg3 mi
11:20 PM46 °FFog.2 mph100%30.15 "Hg3 mi
10:50 PM46 °FFog.3 mph100%30.12 "Hg3 mi
10:20 PM48 °FFog.3 mph94%30.12 "Hg3 mi
9:50 PM48 °FFog.3 mph100%30.12 "Hg2 mi
9:20 PM48 °FFog.2 mph100%30.12 "Hg2 mi
8:50 PM48 °FFog.1 mph100%30.09 "Hg2 mi
8:20 PM48 °FFog.3 mph100%30.09 "Hg2 mi
7:50 PM48 °FFog.2 mph100%30.09 "Hg1 mi
7:20 PM48 °FFog.5 mph100%30.09 "Hg1 mi
6:50 PM46 °FFog.3 mph100%30.09 "Hg1 mi
6:20 PM46 °FFog.2 mph100%30.07 "Hg1 mi
Weather by CustomWeather, © 2014

See weather overviewHow to use our weather pages